User: anonymous
Location: Niverville
(49.6028°N, 97.0419°W)
Time: 06:33:14
(UTC-05:00)
Language:

BREEZE-M DEB (TANK) - Orbit

View from above orbital plane
View from above orbital plane
View from above satellite
View from above satellite

Ground track
Ground track

The orbit data is extracted from the following two-line orbital elements,

1 33374U 08044B   14258.55291730  .00001292  00000-0  44760-3 0  7286
2 33374 049.4592 267.9875 5452009 202.4469 345.7630 04.84423956105112
Epoch (UTC): 15 September 2014 13:16:12
Eccentricity: 0.5452009
inclination: 49.4592°
perigee height: 332 km
apogee height: 16420 km
right ascension of ascending node: 267.9875°
argument of perigee: 202.4469°
revolutions per day: 4.84423956
mean anomaly at epoch: 345.7630°
orbit number at epoch: 10511

The dashed part of the orbit path shows where the satellite is in the earth's shadow,  

DLR